User: anonymous   Login
Location: Unspecified
(0.0000°N, 0.0000°E)
Time: 21:55:40
(UTC+00:00)
Language:

OBJECT C - Orbit

View from above orbital plane
View from above orbital plane
View from above satellite
View from above satellite

Ground track
Ground track

The orbit is defined by the following mean orbital elements,

1 68794U          26145.36417227 +.00000000 +00000-0 +29338-3 0 00005
2 68794  97.5039 295.2274 0013381 169.1691 190.9828 15.07065345    02
Epoch (UTC): 25 May 2026 08:44:24
Eccentricity: 0.0013381
inclination: 97.5039°
perigee height: 536 km
apogee height: 554 km
right ascension of ascending node: 295.2274°
argument of perigee: 169.1691°
revolutions per day: 15.07065345
mean anomaly at epoch: 190.9828°

The dashed part of the orbit path shows where the satellite is in the earth's shadow,  

DLR